User: anonymous   Login
Location: Brahman Valley
(40.6513°N, 111.8855°W)
Time: 13:06:49
(UTC+00:00)
Language:

Vanguard 2 Rocket - Orbit

View from above orbital plane
View from above orbital plane
View from above satellite
View from above satellite

Ground track
Ground track

The orbit data is extracted from the following two-line orbital elements,

1 00012U 59001B   21127.79242236 -.00000045  00000-0 -32916-4 0  9992
2 00012  32.9050 296.0977 1666505 341.2402  13.3229 11.44399442317146
Epoch (UTC): 07 May 2021 19:01:05
Eccentricity: 0.1666505
inclination: 32.9050°
perigee height: 553 km
apogee height: 3326 km
right ascension of ascending node: 296.0977°
argument of perigee: 341.2402°
revolutions per day: 11.44399442
mean anomaly at epoch: 13.3229°
orbit number at epoch: 31714

The dashed part of the orbit path shows where the satellite is in the earth's shadow,  

DLR